{"data":{"norad_id":64602,"epoch":"2026-05-24T20:22:41.871072Z","epoch_age_seconds":84775,"freshness":"FRESH","line1":"1 64602U 25137J   26144.84909573  .00023601  00000+0  80625-3 0  9993","line2":"2 64602  53.1601 341.5941 0001172  83.0515 277.0619 15.30208223 52393","mean_motion":15.30208223,"eccentricity":0.0001172,"inclination_deg":53.1601,"raan_deg":341.5941,"arg_perigee_deg":83.0515,"mean_anomaly_deg":277.0619,"bstar":0.00080625,"rev_number":5239,"period_min":94.104840005163,"perigee_km":474.38730714847,"apogee_km":475.99372711849,"semimajor_km":6853.3275171335,"source":"CELESTRAK","updated_at":"2026-05-25T13:38:20.493902Z"}}